Location: downtown San Diego
(32.7310°N, 117.1990°W)
Time: 17:22:11
(UTC-07:00)

Cosmos 1825 Rocket - Pass Details

Date: 14 June 2018
Orbit: 604 x 631 km, 82.5° (Epoch: 19 October)

Event Time Altitude Azimuth Distance (km) Brightness Sun altitude
Exits shadow 22:33:26 40° 243° (WSW) 934 4.4 -25.3°
Maximum altitude 22:34:22 46° 279° (W) 846 4.4 -25.4°
Drops below altitude 10° 22:38:41 10° 353° (N) 2,016 7.0 -25.9°
Sets 22:41:00 0° 359° (N) 2,926 7.9 -26.2°
